Flag for Norway Weather past 2 weeks in Stange, Norway

Now
57 °F

Cool.


Feels Like: 57 °F
Forecast: 54 / 69 °F
Wind: 3 mph from South

Location: Haugedalshogda

Current Time: Jul 7, 2015 at 1:01:29 AM

Latest Report: Jul 6, 2015 at 10:00 PM


Visibility: N/A

Pressure: 29.47 "Hg

Humidity: 80%

Dew point: 50 °F

Location of StangeLocation

Historic Weather in Stange — Graph

°F

Stange temperature yesterday

Maximum temperature yesterday: 65 °F (at 6:00 PM)
Minimum temperature yesterday: 55 °F (at 3:00 AM)
Average temperature yesterday: 60 °F

Past Weeks' High & Low Weather Summary

 TemperatureHumidityPressure
High82 °F (Jul 5, 4:00 PM)95% (Jun 22, 5:00 AM)30.32 "Hg (Jun 22, 5:00 AM)
Low43 °F (Jun 22, 4:00 AM)29% (Jul 2, 12:00 PM)29.44 "Hg (Jul 6, 7:00 PM)
Average61 °F68%29.96 "Hg
* Reported Jun 21 10:00 PM — Jul 6 10:00 PM, Stange, Weather by CustomWeather, © 2015

Note: Actual official high and low records may vary slightly from our data, if they occured in-between our weather recording intervals... More about our weather records

Advertising

Stange weather history for previous 24 hours

 ConditionsComfort  
Time TempWeatherWind HumidityBarometerVisibility
10:00 PM
Mon, Jul 6
57 °FCool.3 mph80%29.47 "HgN/A
9:00 PM60 °FCool.5 mph72%29.44 "HgN/A
8:00 PM64 °FMild.6 mph64%29.44 "HgN/A
7:00 PM65 °FMild.5 mph67%29.44 "HgN/A
6:00 PM65 °FMild.5 mph74%29.47 "HgN/A
5:00 PM65 °FMild.6 mph77%29.50 "HgN/A
4:00 PM63 °FMild.6 mph87%29.50 "HgN/A
3:00 PM65 °FMild.6 mph82%29.50 "HgN/A
2:00 PM61 °FCool.5 mph89%29.56 "HgN/A
1:00 PM58 °FCool.1 mph93%29.60 "HgN/A
12:00 PM58 °FCool.2 mph93%29.62 "HgN/A
11:00 AM58 °FCool.2 mph92%29.65 "HgN/A
10:00 AM58 °FCool.5 mph89%29.66 "HgN/A
9:00 AM58 °FCool.1 mph90%29.70 "HgN/A
8:00 AM58 °FCool.2 mph89%29.74 "HgN/A
7:00 AM60 °FCool.5 mph87%29.76 "HgN/A
6:00 AM61 °FCool.3 mph88%29.79 "HgN/A
4:00 AM55 °FCool.1 mph92%29.84 "HgN/A
3:00 AM55 °FCool.No wind90%29.87 "HgN/A
2:00 AM57 °FCool.No wind89%29.88 "HgN/A
1:00 AM61 °FCool.1 mph85%29.89 "HgN/A
Weather by CustomWeather, © 2015

See weather overviewHow to use our weather pages